| time (UTC) | temp C | wind direction | speed KPH | gust KPH | rain 1hr cm | rain 24hr cm | rain mn cm | humidity % | barometer mb |
| 20260505040105 | 22 | 13 | 0.0 | 3.2 | 0.00 | 0.00 | 0.00 | 79 | 1011.2 |
| 20260505034526 | 22 | 133 | 0.0 | 1.6 | 0.00 | 0.00 | 0.00 | 79 | 1010.9 |
| 20260505033052 | 22 | 90 | 0.0 | 4.8 | 0.00 | 0.00 | 0.00 | 79 | 1011.3 |
| 20260505031511 | 22 | 53 | 0.0 | 3.2 | 0.00 | 0.00 | 0.00 | 78 | 1011.2 |
| 20260505030044 | 22 | 223 | 0.0 | 6.4 | 0.00 | 0.00 | 0.00 | 78 | 1011.0 |
| 20260505024554 | 22 | 64 | 0.0 | 8.0 | 0.00 | 0.00 | 0.00 | 77 | 1011.0 |
| 20260505023054 | 22 | 127 | 0.0 | 3.2 | 0.00 | 0.00 | 0.00 | 77 | 1011.1 |
| 20260505021603 | 22 | 156 | 0.0 | 3.2 | 0.00 | 0.00 | 0.00 | 77 | 1011.0 |
| 20260505020100 | 22 | 321 | 0.0 | 3.2 | 0.00 | 0.00 | 0.00 | 77 | 1011.0 |
| 20260505014513 | 22 | 69 | 0.0 | 1.6 | 0.00 | 0.00 | 0.00 | 76 | 1010.6 |
| 20260505013045 | 23 | 69 | 0.0 | 3.2 | 0.00 | 0.00 | 0.00 | 75 | 1010.6 |
| 20260505011533 | 23 | 74 | 0.0 | 3.2 | 0.00 | 0.00 | 0.00 | 73 | 1010.6 |
| 20260505010109 | 23 | 28 | 0.0 | 3.2 | 0.00 | 0.00 | 0.00 | 73 | 1010.6 |
| 20260505004542 | 23 | 325 | 0.0 | 1.6 | 0.00 | 0.00 | 0.00 | 72 | 1010.4 |
| 20260505003003 | 23 | 328 | 0.0 | 3.2 | 0.00 | 0.00 | 0.00 | 72 | 1010.4 |
| 20260505001546 | 24 | 51 | 0.0 | 6.4 | 0.00 | 0.00 | 0.00 | 71 | 1010.6 |
| 20260505000105 | 24 | 86 | 0.0 | 3.2 | 0.00 | 0.00 | 0.00 | 71 | 1010.7 |
| 20260504234524 | 24 | 159 | 0.0 | 6.4 | 0.00 | 0.00 | 0.00 | 70 | 1010.5 |
| 20260504233039 | 24 | 329 | 0.0 | 3.2 | 0.00 | 0.00 | 0.00 | 71 | 1010.7 |
| 20260504231501 | 25 | 76 | 0.0 | 6.4 | 0.00 | 0.00 | 0.00 | 70 | 1010.9 |
| 20260504230001 | 25 | 76 | 0.0 | 6.4 | 0.00 | 0.00 | 0.00 | 69 | 1011.1 |
| 20260504224545 | 25 | 106 | 0.0 | 9.7 | 0.00 | 0.00 | 0.00 | 68 | 1011.0 |
| 20260504223054 | 25 | 92 | 0.0 | 4.8 | 0.00 | 0.00 | 0.00 | 67 | 1011.2 |
| 20260504221520 | 26 | 38 | 0.0 | 3.2 | 0.00 | 0.00 | 0.00 | 66 | 1011.4 |
| 20260504220007 | 26 | 85 | 0.0 | 4.8 | 0.00 | 0.00 | 0.00 | 64 | 1011.4 |
| 20260504214559 | 26 | 65 | 0.0 | 6.4 | 0.00 | 0.00 | 0.00 | 62 | 1011.5 |
| 20260504213113 | 27 | 90 | 0.0 | 3.2 | 0.00 | 0.00 | 0.00 | 59 | 1011.6 |
| 20260504211549 | 27 | 105 | 0.0 | 3.2 | 0.00 | 0.00 | 0.00 | 57 | 1011.8 |
| 20260504210005 | 28 | 105 | 0.0 | 4.8 | 0.00 | 0.00 | 0.00 | 54 | 1012.0 |
| 20260504204530 | 27 | 82 | 0.0 | 4.8 | 0.00 | 0.00 | 0.00 | 55 | 1012.4 |
| 20260504203048 | 27 | 291 | 0.0 | 1.6 | 0.00 | 0.00 | 0.00 | 55 | 1012.7 |
| 20260504201526 | 27 | 206 | 0.0 | 6.4 | 0.00 | 0.00 | 0.00 | 54 | 1012.8 |
| 20260504200007 | 27 | 80 | 0.0 | 1.6 | 0.00 | 0.00 | 0.00 | 57 | 1012.9 |
| 20260504194555 | 27 | 116 | 0.0 | 4.8 | 0.00 | 0.00 | 0.00 | 54 | 1013.2 |
| 20260504193103 | 26 | 288 | 0.0 | 4.8 | 0.00 | 0.00 | 0.00 | 60 | 1013.5 |
| 20260504191507 | 27 | 331 | 0.0 | 1.6 | 0.00 | 0.00 | 0.00 | 57 | 1013.8 |
| 20260504190040 | 27 | 289 | 0.0 | 4.8 | 0.00 | 0.00 | 0.00 | 56 | 1014.0 |
| 20260504184547 | 27 | 275 | 0.0 | 3.2 | 0.00 | 0.00 | 0.00 | 53 | 1014.1 |
| 20260504183019 | 27 | 105 | 0.0 | 4.8 | 0.00 | 0.00 | 0.00 | 55 | 1014.2 |
| 20260504181548 | 26 | 43 | 0.0 | 3.2 | 0.00 | 0.00 | 0.00 | 53 | 1014.4 |
| 20260504180009 | 26 | 294 | 0.0 | 6.4 | 0.00 | 0.00 | 0.00 | 57 | 1014.6 |
| 20260504174528 | 26 | 88 | 0.0 | 4.8 | 0.00 | 0.00 | 0.00 | 57 | 1014.8 |
| 20260504173049 | 26 | 360 | 0.0 | 4.8 | 0.00 | 0.00 | 0.00 | 58 | 1015.0 |
| 20260504171601 | 25 | 107 | 0.0 | 3.2 | 0.00 | 0.00 | 0.00 | 58 | 1015.3 |
| 20260504150112 | 22 | 128 | 0.0 | 4.8 | 0.00 | 0.00 | 0.00 | 66 | 1016.3 |
| 20260504130104 | 13 | 171 | 0.0 | 0.0 | 0.00 | 0.00 | 0.00 | 95 | 1016.3 |
| 20260504120118 | 12 | 177 | 0.0 | 0.0 | 0.00 | 0.00 | 0.00 | 94 | 1016.2 |
| 20260504100122 | 12 | 174 | 0.0 | 0.0 | 0.00 | 0.00 | 0.00 | 92 | 1016.1 |
| 20260504081559 | 13 | 174 | 0.0 | 0.0 | 0.00 | 0.00 | 0.00 | 90 | 1016.7 |
| 20260504080116 | 13 | 174 | 0.0 | 0.0 | 0.00 | 0.00 | 0.00 | 91 | 1016.9 |
| 20260504060121 | 14 | 174 | 0.0 | 0.0 | 0.00 | 0.00 | 0.00 | 86 | 1018.0 |
| 20260504044539 | 15 | 174 | 0.0 | 0.0 | 0.00 | 0.00 | 0.00 | 81 | 1018.5 |
| 20260504043033 | 16 | 174 | 0.0 | 0.0 | 0.00 | 0.00 | 0.00 | 81 | 1018.5 |
| 20260504041549 | 16 | 174 | 0.0 | 0.0 | 0.00 | 0.00 | 0.00 | 79 | 1018.5 |